Вернуться в каталог

SHIYAN 30 01

АктивенНаукаVLEO
NORAD 65851·PAYLOAD·🇨🇳 China

Запущен Sep 29, 2025 с Xichang Satellite Launch Center

Loading…

Ближайшие Пролёты (ближайшие 24 часа)

TLE

СвежийSource: Space-Track

Эпоха: Sep 14, 2026, 18:26 UTC

1 65851U 25222A   26257.76838396  .00001394  00000-0  13772-3 0  9990
2 65851  34.9879  85.0909 0001841 201.1344 158.9285 14.91958756 52423

Отслеживайте SHIYAN 30 01 в реальном времени с AllMySat

Download on the App Store